PIESAT-2 11 (62335 NORAD) Tracking and Keplerian Element Data

This shows tracking and keplerian element data for the satellite.

Feedback or suggestion? Click here.




ElementValue
Catalog62335
NamePIESAT-2 11
Epoch Orbit747
Epoch Day35.20500203
Epoch Year2025
RAAN344.5305
Inclination97.4959
Eccentricity0.0006653
Argument of Perigee97.6162
Mean Anonmoly262.5826
Mean Motion15.13853888
Decay Rate0.0002068
L11 62335U 24241C 25035.20500203 .00020680 00000+0 11445-2 0 9991
L22 62335 97.4959 344.5305 0006653 97.6162 262.5826 15.13853888 7478



Live tracking and technical data element details for PIESAT-2 11 (NORAD 62335). PIESAT-2 11 can be tracked NOW for your location showing map with azimuth and elevation plus other details from your city location.







IsCatalogInMostPopularTable: catalog: 62335, numindb: 9
Update: records affected: 1



GetName: 62335 PIESAT-2 11

Hit Count: updated at: Sun, 18 May 2025 22:55:26 GMT